Showing default

SPAWAR-CAL-O, 43766

Orbit data source: Space-Track

SPAWAR-CAL-O, 43766 is a payload satellite owned by SPAWAR (US) in SSO that was launched on Mon, 03 Dec 2018 UTC via an FALCON 9 launch vehicle from the Air Force Western Test Range (AFWTR). Payload-class satellites include a variety of spacecraft equipped with specific instruments for various scientific and technological missions. These include communications satellites like Starlink; space stations such as the ISS; scientific satellites like the Hubble; Earth observation satellites from companies like Planet Labs, Umbra, and HawkEye 360; GPS; miniature CubeSats for education and research; and military/defense satellites.

Loading next visibility...
Identifier
43766, 2018-099J
Orbit
SSO
Country
Flag of USUS
Related business
Manufacturer
SPAWAR?
Mission
Operational Defense Calibration
Bus & Motor
CUBESAT 1U, Unknown motor
Mass
1 kg wet, 1 kg dry
Launch date (UTC)
2018-12-03 (8 years ago)
Launch vehicle
FALCON 9
Launch site
Air Force Western Test Range (AFWTR)
Object type
Payload
Rocket body
Debris
Shape & HBR
Box, 0.1 m
Radar Cross Section
0.015 m², Medium (>0.1 m² and < 1m²)

Expand to show TLE details & history
Last TLE update: 14 hours ago

TLE from 14 hours ago
0 SPAWAR-CAL-O
1 43766U 18099J   26206.44260146  .00019248  00000-0  54181-3 0  9992
2 43766  97.4310 270.7725 0009325 146.2728 213.9111 15.36468501419394
Epoch: 2026-07-25T10:37Z
TLE epoch observation values (Epoch: 2026-07-25T10:37:20.766Z)
Latitude
-0°
Longitude
168.28116°
Altitude
464.966 km
Speed
7.631 km/s
True Right ascension
18h 03m 05s
True Declination
0° 00' 00"
Sunlit
Object was in full shadow at epoch
Visualization orbit readout
Latitude
Unknown
Longitude
Unknown
Altitude
Unknown
Speed
Unknown
Apparent Right ascension
Unknown
Apparent Declination
Unknown
Sunlit
N/A
Visualization observer readout
Local Sidereal Time
14:09:00
Azimuth
Unknown
Elevation
Unknown
Doppler factor
Unknown
Orbital elements
Apogee altitude
459.878 km
Perigee altitude
447.137 km
Semi-major axis
6,831.644 km
Eccentricity
0.00093
Inclination
97.431°
RAAN
270.7725°
Arg. of periapsis
146.2728°
True anomaly
213.85154°
Mean anomaly
213.9111°
Eccentric anomaly
213.88132°
Mean motion
3.84375 °/min
Orbital period
93.66 mins
BSTAR
0.00054181
Loading maneuver chart data...
Computing Atmospheric mass density...
Loading historical data...
Loading historical data...
Loading historical data...
Loading historical data...
Loading historical data...
Loading historical data...
Loading historical data...

Documentation

Showing up to 5 results
|